Location: Sortland
(68.7020°N, 15.4240°E)
Time: 06:29:35
(UTC+01:00)

Envisat - Pass Details

Date: 28 October 2019
Orbit: 764 x 766 km, 98.1° (Epoch: 21 November)

Event Time Altitude Azimuth Distance (km) Brightness Sun altitude
Rises 20:20:19 0° 239° (WSW) 3,237 6.6 -26.0°
Reaches altitude 10° 20:24:20 10° 271° (W) 2,315 6.2 -26.3°
Maximum altitude 20:26:10 12° 292° (WNW) 2,191 6.3 -26.4°
Drops below altitude 10° 20:28:01 10° 314° (NW) 2,319 6.5 -26.6°
Sets 20:32:04 0° 345° (NNW) 3,250 7.0 -26.9°
